Flag for Germany Past Weather in Limburg an der Lahn, Hesse, Germany — Yesterday and Last 2 Weeks

Now
75 °F

Passing clouds.


Feels Like: 78 °F
Forecast: 56 / 74 °F
Wind: 7 mph from Northwest

Location: Wiesbaden Airport

Current Time: Aug 28, 2016 at 11:03:30 PM

Latest Report: Aug 28, 2016 at 9:58 PM


Visibility: N/A

Pressure: 29.96 "Hg

Humidity: 51%

Dew Point: 55 °F

Location of Limburg an der LahnLocation

Past Weather in Limburg an der Lahn — Graph

°F

Limburg an der Lahn Temperature Yesterday

Maximum temperature yesterday: 93 °F (at 4:58 PM)
Minimum temperature yesterday: 64 °F (at 6:58 AM)
Average temperature yesterday: 79 °F

High & Low Weather Summary for the Past Weeks

 TemperatureHumidityPressure
High93 °F (Aug 27, 4:58 PM)89% (Aug 22, 6:58 AM)30.39 "Hg (Aug 22, 6:58 AM)
Low52 °F (Aug 18, 6:58 AM)22% (Aug 16, 5:58 PM)29.79 "Hg (Aug 18, 5:58 PM)
Average70 °F55%30.06 "Hg
* Reported Aug 13 9:58 PM — Aug 28 9:58 PM, Limburg an der Lahn, Weather by CustomWeather, © 2016

Note: Actual official high and low records may vary slightly from our data, if they occured in-between our weather recording intervals... More about our weather records

Advertising

Limburg an der Lahn Weather History for the Previous 24 Hours

Scroll right to see more
 ConditionsComfort  
Time TempWeatherWind HumidityBarometerVisibility
9:58 PM
Sun, Aug 28
75 °FPassing clouds.7 mph51%29.96 "HgN/A
8:58 PM74 °FPartly sunny.8 mph52%29.95 "HgN/A
7:58 PM79 °FSunny.7 mph39%29.94 "HgN/A
6:58 PM81 °FPartly sunny.14 mph48%29.95 "HgN/A
5:58 PM80 °FBroken clouds.7 mph53%29.92 "HgN/A
4:58 PM83 °FLight rain. Broken clouds.15 mph38%29.93 "Hg4 mi
3:58 PM91 °FPartly sunny.12 mph24%29.89 "HgN/A
2:58 PM91 °FSunny.12 mph26%29.90 "HgN/A
1:58 PM90 °FSunny.10 mph35%29.92 "HgN/A
12:58 PM86 °FSunny.7 mph41%29.94 "HgN/A
11:58 AM83 °FSunny.6 mph45%29.96 "HgN/A
10:58 AM79 °FSunny.3 mph51%29.98 "HgN/A
9:58 AM76 °FSunny.3 mph56%29.98 "Hg5 mi
8:58 AM72 °FPassing clouds.No wind66%29.98 "HgN/A
7:58 AM65 °FSunny.2 mph77%29.96 "HgN/A
6:58 AM64 °FClear.5 mph78%29.94 "HgN/A
5:58 AM65 °FClear.No wind75%29.95 "HgN/A
4:58 AM66 °FClear.2 mph73%29.94 "HgN/A
3:58 AM67 °FClear.No wind72%29.94 "HgN/A
2:58 AM68 °FClear.3 mph68%29.95 "HgN/A
1:58 AM69 °FClear.3 mph66%29.96 "HgN/A
12:58 AM73 °FClear.1 mph58%29.96 "HgN/A
11:58 PM
Sat, Aug 27
73 °FClear.2 mph63%29.96 "HgN/A
Weather by CustomWeather, © 2016

See weather overviewHow to use our weather pages